Location: Unspecified
(0.0000°N, 0.0000°E)
Time: 03:23:10
(UTC+00:00)

Transit 2A Rocket - Visible Passes

Search period start: 04 August 2015 00:00
Search period end: 14 August 2015 00:00
Orbit: 591 x 915 km, 66.7° (Epoch: 03 August)

Date Brightness Start Highest point End Pass type
(mag) Time Alt. Az. Time Alt. Az. Time Alt. Az.
04 Aug 7.6 19:12:09 10° SW 19:17:18 27° WNW 19:22:10 10° NNW visible
05 Aug 6.3 18:29:12 10° SSW 18:35:09 53° WNW 18:40:55 10° N visible
06 Aug 7.4 05:19:13 10° NNE 05:22:29 22° ENE 05:25:56 10° ESE visible
07 Aug 8.4 18:49:33 10° WSW 18:53:30 17° WNW 18:57:03 10° NNW visible
08 Aug 4.4 05:36:23 10° NNW 05:40:38 79° WSW 05:45:02 10° SSE visible
09 Aug 5.9 04:54:33 10° N 04:58:33 40° ENE 05:02:42 10° SE visible
10 Aug 7.4 04:13:40 10° NNE 04:16:25 17° ENE 04:19:24 10° ESE visible
11 Aug 4.9 05:12:39 10° NW 05:16:41 41° WSW 05:20:51 10° S visible
12 Aug 4.5 04:30:20 10° NNW 04:34:35 79° ENE 04:39:01 10° SSE visible
13 Aug 6.4 03:53:43 27° ESE 03:53:43 27° ESE 03:56:27 10° SE visible
